[[{"header":{"parameterUnit":"m.s-1","parameterCategory":1,"la1":30.2991,"la2":30.254,"lo1":-89.0895,"lo2":-89.0444,"dy":0.0017,"dx":0.0017,"nx":28,"ny":28,"refTime":"2024-02-28T09:00:00:Z","depth":0,"parameterNumber":2,"parameterNumberName":"U-component_of_WINDS"},"data":[0,0,0,0,0,0,0,0,0,0,0,0,0,0,0,0,0,0,0,0,0,0,0,0,0,0,0,0,0,0,0,0,0,0,0,0,0,0,0,0,0,0,0,0,0,0,0,0,0,0,0,0,0,0,0,0,0,0,-5.6306,-5.6307,0,-5.6426,-5.6427,-5.6429,-5.6304,-5.6299,-5.6294,-5.6289,-5.6417,-5.6425,-5.6432,0,0,0,0,0,0,0,0,0,0,0,0,0,-5.597,-5.5977,-5.6305,-5.6307,-5.6308,-5.6426,-5.6427,-5.6429,-5.6305,-5.6299,-5.6293,-5.6287,-5.6414,-5.6424,-5.6433,0,0,0,0,0,0,0,0,0,0,0,0,0,-5.6106,-5.598,-5.6305,-5.626,-5.6257,-5.6426,-5.6428,-5.643,-5.6306,-5.6299,-5.6291,-5.6284,-5.6411,-5.6423,-5.6434,-5.6654,0,0,-5.6471,-5.6476,0,0,0,0,0,0,0,0,-5.6099,-5.6119,-5.6265,-5.6264,-5.6261,-5.6342,-5.6356,-5.6505,-5.6308,-5.6288,-5.6289,-5.6281,-5.6398,-5.6411,-5.6449,-5.666,-5.6665,-5.6472,-5.6479,-5.6484,-5.6488,0,0,0,0,0,0,0,-5.6089,-5.6113,-5.6353,-5.6268,-5.6265,-5.6235,-5.6246,-5.6384,-5.6383,-5.6289,-5.628,-5.6296,-5.6396,-5.6438,-5.6452,-5.6667,-5.6472,-5.6482,-5.6489,-5.6494,-5.7063,-5.7071,0,0,0,0,0,0,-5.6085,-5.6106,-5.6349,-5.6357,-5.616,-5.6247,-5.626,-5.6324,-5.6381,-5.6382,-5.6302,-5.629,-5.6422,-5.6438,-5.6456,-5.6715,-5.6484,-5.6495,-5.6502,-5.7055,-5.7065,-5.7073,0,0,0,0,0,0,-5.6078,-5.6107,-5.6344,-5.6229,-5.6257,-5.6261,-5.6333,-5.633,-5.6372,-5.639,-5.639,-5.6346,-5.6417,-5.6439,-5.6605,-5.6718,-5.6501,-5.6511,-5.7046,-5.7058,-5.7069,-5.7237,0,0,0,0,0,0,-5.6069,-5.6106,-5.6188,-5.6232,-5.6263,-5.6491,-5.634,-5.6337,-5.6393,-5.6378,-5.6431,-5.6433,-5.6413,-5.6588,-5.6617,-5.673,-5.6521,-5.7036,-5.7051,-5.7065,-5.7222,-5.7254,-5.7281,0,0,0,0,0,-5.6057,-5.6232,-5.6193,-5.6223,-5.6367,-5.6498,-5.6516,-5.6488,-5.6402,-5.6486,-5.6497,-5.6431,-5.6701,-5.6606,-5.6638,-5.6756,-5.7028,-5.7047,-5.7064,-5.7208,-5.7247,-5.728,0,0,0,0,0,0,-5.6203,-5.6237,-5.6194,-5.6388,-5.6441,-5.6477,-5.6581,-5.653,-5.6609,-5.6592,-5.6555,-5.6568,-5.6744,-5.6767,-5.666,-5.6972,-5.6851,-5.6876,-5.695,-5.6987,-5.7016,-5.7006,-5.6531,0,0,0,0,0,-5.6258,-5.636,-5.6385,-5.6553,-5.6582,-5.6578,-5.6634,-5.6607,-5.6661,-5.6683,-5.6707,-5.6763,-5.686,-5.6925,-5.7015,-5.7225,-5.7235,-5.7322,-5.7352,-5.7376,-5.7398,-5.751,-5.7549,-5.7132,-5.7132,-5.7132,0,0,-5.6372,-5.6403,-5.647,-5.6584,-5.6621,-5.673,-5.6597,-5.6717,-5.6797,-5.6702,-5.6859,-5.6879,-5.6939,-5.7128,-5.7212,-5.7152,-5.7515,-5.7399,-5.7418,-5.7427,-5.7532,-5.7572,-5.7607,-5.7145,-5.7142,-5.714,0,0,-5.6634,-5.6668,-5.6812,-5.6853,-5.6911,-5.6907,-5.6942,-5.6986,-5.6994,-5.7152,-5.7082,-5.7178,-5.7346,-5.7391,-5.7437,-5.7717,-5.7659,-5.7748,-5.7902,-5.8012,-5.8045,-5.8073,-5.8173,-5.8209,-5.777,-5.777,-5.7771,0,-5.6769,-5.6927,-5.6893,-5.7018,-5.707,-5.6987,-5.7132,-5.7174,-5.726,-5.7299,-5.723,-5.7439,-5.7474,-5.7672,-5.774,-5.778,-5.7818,-5.7741,-5.8042,-5.8071,-5.8097,-5.8192,-5.8229,-5.7781,-5.7779,-5.7778,-5.7777,0,-5.709,-5.7201,-5.7311,-5.7394,-5.7458,-5.7594,-5.758,-5.765,-5.7618,-5.7621,-5.7783,-5.7822,-5.7918,-5.7964,-5.7934,-5.8158,-5.8119,-5.8048,-5.7925,-5.8148,-5.8236,-5.8272,-5.7795,-5.7792,-5.7789,-5.7786,0,0,-5.7447,-5.7509,-5.755,-5.7586,-5.7645,-5.7731,-5.7863,-5.7956,-5.8016,-5.8079,-5.8188,-5.8333,-5.8267,-5.8318,-5.8294,-5.839,-5.8609,-5.8307,-5.8308,-5.8361,-5.8857,-5.891,-5.8952,-5.8572,-5.8578,-5.8584,-5.8852,0,-5.771,-5.7936,-5.7909,-5.8126,-5.8228,-5.8152,-5.8266,-5.8316,-5.8323,-5.8412,-5.842,-5.8522,-5.8428,-5.8458,-5.855,-5.8563,-5.8708,-5.8543,-5.8674,-5.8679,-5.866,-5.8998,-5.9054,-5.9305,-5.8886,-5.8892,-5.8896,0,-5.8047,-5.812,-5.8347,-5.8389,-5.8431,-5.8535,-5.8617,-5.8703,-5.8758,-5.8756,-5.8814,-5.8773,-5.8905,-5.8782,-5.8965,-5.8853,-5.8905,-5.892,-5.8929,-5.8939,-5.88,-5.9017,-5.9385,-5.9422,-5.895,-5.8946,-5.8942,0,-5.8283,-5.8439,-5.8594,-5.8628,-5.8682,-5.8756,-5.8783,-5.883,-5.8887,-5.8961,-5.8998,-5.9087,-5.9135,-5.9205,-5.9189,-5.91,-5.9376,-5.9251,-5.9379,-5.938,-5.9439,-5.9436,-5.982,-5.9475,-5.9475,-5.9474,-5.9473,0,-5.8579,-5.8721,-5.8701,-5.8796,-5.8953,-5.8921,-5.9077,-5.9094,-5.9137,-5.9235,-5.9176,-5.9269,-5.9243,-5.9336,-5.9325,-5.9477,-5.95,-5.9503,-5.9498,-5.9508,-5.9508,-5.9541,-5.9522,-5.9484,-5.9482,-5.948,-5.9478,0,-5.8869,-5.8861,-5.9026,-5.9063,-5.9076,-5.919,-5.9222,-5.9313,-5.9315,-5.944,-5.9468,-5.9472,-5.9578,-5.9569,-5.969,-5.9682,-5.9871,-5.9846,-5.9852,-5.9846,-5.9974,-5.9962,-6.0392,-6.0447,-6.0068,-6.0072,-6.0075,0,-5.9058,-5.9165,-5.9213,-5.9274,-5.9305,-5.9404,-5.9462,-5.9435,-5.9499,-5.9569,-5.9652,-5.9752,-5.9831,-6.0005,-6.002,-6.0112,-6.0088,-6.0232,-6.0101,-6.0107,-6.0089,-6.0082,-6.0092,-6.0258,-6.0262,-6.0265,-6.0268,0,-5.9394,-5.9384,-5.9469,-5.9555,-5.9625,-5.9691,-5.9751,-5.9804,-5.9784,-5.9858,-5.9965,-6.0027,-6.0149,-6.025,-6.0337,-6.0365,-6.0314,-6.031,-6.0344,-6.0354,-6.0353,-6.0354,-5.9921,-6.03,-6.0296,-6.0294,-6.0292,-6.0291,-5.9638,-5.9729,-5.9777,-5.9874,-5.9916,-5.9973,-6.006,-6.0073,-6.0161,-6.0257,-6.0237,-6.0358,-6.041,-6.0521,-6.0558,-6.0653,-6.0601,-6.0651,-6.0664,-6.0676,-6.069,-6.0339,-6.0669,-6.0668,-6.0668,-6.0667,-6.0666,0,-5.9969,-5.9996,-6.0086,-6.0171,-6.0248,-6.0192,-6.0255,-6.0323,-6.043,-6.0482,-6.0561,-6.0685,-6.0782,-6.0805,-6.0898,-6.097,-6.0949,-6.0996,-6.099,-6.0997,-6.0732,-6.0692,-6.1011,-6.1011,-6.1011,-6.1011,-6.1011,-6.1011,-6.015,-6.0301,-6.0298,-6.047,-6.0496,-6.0613,-6.0654,-6.0706,-6.0748,-6.0888,-6.0968,-6.0982,-6.1023,-6.1119,-6.1206,-6.121,-6.1247,-6.1303,-6.1298,-6.105,-6.1016,-6.0983,-6.0945,-6.1312,-6.1312,-6.1555,-6.1557,-6.1559]},{"header":{"parameterUnit":"m.s-1","parameterCategory":1,"la1":30.2991,"la2":30.254,"lo1":-89.0895,"lo2":-89.0444,"dy":0.0017,"dx":0.0017,"nx":28,"ny":28,"refTime":"2024-02-28T09:00:00:Z","depth":0,"parameterNumber":3,"parameterNumberName":"V-component_of_WINDS"},"data":[0,0,0,0,0,0,0,0,0,0,0,0,0,0,0,0,0,0,0,0,0,0,0,0,0,0,0,0,0,0,0,0,0,0,0,0,0,0,0,0,0,0,0,0,0,0,0,0,0,0,0,0,0,0,0,0,0,0,-0.9072,-0.9071,0,-0.9034,-0.9034,-0.9034,-0.9029,-0.9029,-0.903,-0.903,-0.8992,-0.8991,-0.8989,0,0,0,0,0,0,0,0,0,0,0,0,0,-0.9137,-0.9136,-0.9072,-0.9071,-0.9071,-0.9034,-0.9034,-0.9033,-0.9029,-0.9029,-0.903,-0.903,-0.8992,-0.8991,-0.8989,0,0,0,0,0,0,0,0,0,0,0,0,0,-0.9105,-0.9136,-0.9072,-0.9064,-0.9063,-0.9035,-0.9034,-0.9033,-0.9029,-0.9029,-0.903,-0.9031,-0.8993,-0.8991,-0.8989,-0.8966,0,0,-0.8983,-0.8982,0,0,0,0,0,0,0,0,-0.9107,-0.9103,-0.9066,-0.9065,-0.9063,-0.9037,-0.9043,-0.9011,-0.9029,-0.9042,-0.903,-0.9031,-0.9007,-0.9003,-0.8995,-0.8964,-0.8962,-0.8983,-0.8981,-0.8981,-0.898,0,0,0,0,0,0,0,-0.9109,-0.9104,-0.9057,-0.9065,-0.9064,-0.9062,-0.9058,-0.9037,-0.9022,-0.9041,-0.904,-0.9036,-0.9006,-0.8997,-0.8994,-0.8962,-0.8983,-0.8981,-0.898,-0.8979,-0.8907,-0.8906,0,0,0,0,0,0,-0.9113,-0.9106,-0.9058,-0.9056,-0.9087,-0.906,-0.9056,-0.9045,-0.9022,-0.9019,-0.9036,-0.9036,-0.9,-0.8997,-0.8993,-0.8962,-0.8981,-0.8979,-0.8978,-0.8907,-0.8907,-0.8906,0,0,0,0,0,0,-0.9115,-0.9109,-0.906,-0.9081,-0.9074,-0.9059,-0.9046,-0.9044,-0.9035,-0.9018,-0.9015,-0.9029,-0.9001,-0.8996,-0.8972,-0.8961,-0.8978,-0.8976,-0.8908,-0.8907,-0.8906,-0.8902,0,0,0,0,0,0,-0.9116,-0.9109,-0.9101,-0.9081,-0.9073,-0.9039,-0.9046,-0.9043,-0.9032,-0.9032,-0.9011,-0.9009,-0.9001,-0.8975,-0.897,-0.8959,-0.8974,-0.8909,-0.8908,-0.8906,-0.8903,-0.8901,-0.8899,0,0,0,0,0,-0.9119,-0.9102,-0.91,-0.9095,-0.9062,-0.9039,-0.9035,-0.9026,-0.9031,-0.9021,-0.901,-0.9009,-0.8963,-0.8973,-0.8967,-0.8955,-0.891,-0.8908,-0.8907,-0.8904,-0.8901,-0.8899,0,0,0,0,0,0,-0.9121,-0.9099,-0.9097,-0.9073,-0.9058,-0.9038,-0.9026,-0.9024,-0.9007,-0.9008,-0.8998,-0.8993,-0.8969,-0.896,-0.8971,-0.893,-0.8937,-0.8934,-0.8937,-0.8934,-0.8932,-0.8935,-0.8973,0,0,0,0,0,-0.9119,-0.9102,-0.9083,-0.9064,-0.9056,-0.9043,-0.9032,-0.9027,-0.901,-0.9004,-0.8991,-0.8975,-0.8957,-0.8945,-0.8928,-0.8902,-0.8896,-0.889,-0.8889,-0.8887,-0.8885,-0.8868,-0.8865,-0.8901,-0.8901,-0.8901,0,0,-0.9114,-0.91,-0.909,-0.9064,-0.9051,-0.9033,-0.9037,-0.9019,-0.9005,-0.9001,-0.8977,-0.8967,-0.8949,-0.8923,-0.8911,-0.8914,-0.8873,-0.8885,-0.8884,-0.8882,-0.8866,-0.8863,-0.886,-0.89,-0.89,-0.89,0,0,-0.9096,-0.9084,-0.9065,-0.9052,-0.9033,-0.9024,-0.9019,-0.9,-0.8992,-0.8968,-0.8965,-0.8948,-0.8917,-0.8904,-0.8893,-0.8867,-0.8865,-0.8862,-0.8851,-0.8836,-0.8833,-0.883,-0.882,-0.8816,-0.886,-0.8859,-0.8859,0,-0.9092,-0.9065,-0.9056,-0.9037,-0.9025,-0.902,-0.9,-0.8988,-0.8965,-0.8956,-0.896,-0.892,-0.8907,-0.8878,-0.8871,-0.8863,-0.8857,-0.8864,-0.8834,-0.8831,-0.8829,-0.8819,-0.8815,-0.8859,-0.8859,-0.8859,-0.8859,0,-0.9061,-0.9042,-0.9029,-0.9005,-0.8992,-0.8973,-0.896,-0.8948,-0.8943,-0.8933,-0.8907,-0.8892,-0.887,-0.8863,-0.8859,-0.8832,-0.8834,-0.8836,-0.8843,-0.8825,-0.8815,-0.8811,-0.8859,-0.8859,-0.8859,-0.8859,0,0,-0.9044,-0.9014,-0.9009,-0.8997,-0.8975,-0.896,-0.894,-0.8918,-0.8907,-0.889,-0.8872,-0.8846,-0.8847,-0.8834,-0.8828,-0.8814,-0.8793,-0.8818,-0.8817,-0.8813,-0.8761,-0.8759,-0.8754,-0.8792,-0.8791,-0.879,-0.8762,0,-0.9022,-0.8986,-0.8976,-0.8945,-0.8927,-0.8921,-0.8903,-0.8887,-0.8877,-0.886,-0.8849,-0.8829,-0.8833,-0.8825,-0.8811,-0.8799,-0.8782,-0.8801,-0.8774,-0.8773,-0.8778,-0.8749,-0.8748,-0.8721,-0.8758,-0.8758,-0.8757,0,-0.8992,-0.8973,-0.894,-0.8918,-0.891,-0.8895,-0.8873,-0.8857,-0.8838,-0.8831,-0.8816,-0.8811,-0.8789,-0.8797,-0.8766,-0.8778,-0.8767,-0.8759,-0.8757,-0.8754,-0.8763,-0.8744,-0.8713,-0.8709,-0.8751,-0.8752,-0.8752,0,-0.8981,-0.8948,-0.8923,-0.8914,-0.8888,-0.8877,-0.8865,-0.8847,-0.8834,-0.8815,-0.8806,-0.8785,-0.8773,-0.8757,-0.8745,-0.8753,-0.8714,-0.8722,-0.8707,-0.8707,-0.8699,-0.8699,-0.8664,-0.8693,-0.8693,-0.8693,-0.8694,0,-0.8957,-0.8937,-0.8918,-0.8903,-0.8879,-0.8868,-0.8845,-0.8833,-0.8817,-0.8799,-0.8793,-0.8776,-0.8763,-0.8743,-0.8735,-0.8709,-0.8704,-0.8697,-0.8695,-0.8697,-0.8698,-0.8689,-0.869,-0.8692,-0.8693,-0.8693,-0.8693,0,-0.8941,-0.8927,-0.89,-0.8877,-0.8871,-0.8855,-0.8835,-0.8819,-0.8809,-0.8786,-0.878,-0.8762,-0.874,-0.8727,-0.8698,-0.8692,-0.8663,-0.8662,-0.8669,-0.8668,-0.8653,-0.8654,-0.861,-0.8603,-0.8638,-0.8638,-0.8638,0,-0.8926,-0.891,-0.8885,-0.8872,-0.886,-0.884,-0.8826,-0.8814,-0.88,-0.8776,-0.8763,-0.874,-0.872,-0.8684,-0.8668,-0.8646,-0.8644,-0.863,-0.8641,-0.8643,-0.8642,-0.8643,-0.864,-0.8628,-0.8628,-0.8628,-0.8627,0,-0.89,-0.8894,-0.8874,-0.8852,-0.8835,-0.8817,-0.8799,-0.8789,-0.8773,-0.8757,-0.8733,-0.8718,-0.8688,-0.8665,-0.8641,-0.8629,-0.8625,-0.8624,-0.8619,-0.8621,-0.8625,-0.8621,-0.8663,-0.8625,-0.8625,-0.8625,-0.8626,-0.8626,-0.8883,-0.8868,-0.8847,-0.8825,-0.881,-0.8793,-0.8776,-0.8763,-0.8743,-0.8717,-0.8711,-0.8685,-0.8665,-0.8632,-0.8619,-0.8599,-0.8601,-0.8595,-0.8593,-0.8591,-0.859,-0.8629,-0.8595,-0.8595,-0.8595,-0.8595,-0.8595,0,-0.8856,-0.8842,-0.8822,-0.8796,-0.8778,-0.8776,-0.8755,-0.874,-0.8717,-0.8699,-0.8679,-0.8651,-0.8627,-0.861,-0.8585,-0.8572,-0.857,-0.8566,-0.8566,-0.8563,-0.859,-0.8596,-0.8568,-0.8568,-0.8568,-0.8568,-0.8568,-0.8568,-0.884,-0.8813,-0.8804,-0.877,-0.8756,-0.873,-0.8718,-0.8702,-0.8687,-0.8655,-0.8635,-0.8624,-0.8605,-0.8579,-0.8557,-0.8552,-0.8543,-0.8539,-0.8534,-0.8559,-0.8562,-0.8564,-0.857,-0.8538,-0.8538,-0.8509,-0.8509,-0.8509]}]]